TimeAKDT,TemperatureF,Dew PointF,Humidity,Sea Level PressureIn,VisibilityMPH,Wind Direction,Wind SpeedMPH,Gust SpeedMPH,PrecipitationIn,Events,Conditions,WindDirDegrees,DateUTC
12:06 AM,33.8,33.8,100,29.50,2.5,NW,8.1,-,0.00,Snow,Light Snow,320,2013-03-20 08:06:00
12:34 AM,33.8,33.8,100,29.49,3.0,NW,8.1,-,0.01,Snow,Light Snow,320,2013-03-20 08:34:00
12:53 AM,32.0,32.0,100,29.49,3.0,WNW,8.1,-,0.01,Snow,Light Snow,300,2013-03-20 08:53:00
1:05 AM,32.0,32.0,100,29.48,4.0,NW,5.8,-,0.00,Snow,Light Snow,310,2013-03-20 09:05:00
1:19 AM,33.8,32.0,93,29.47,9.0,NW,6.9,-,0.00,Snow,Light Snow,310,2013-03-20 09:19:00
1:53 AM,32.0,32.0,100,29.47,4.0,WNW,8.1,-,0.00,Snow,Light Snow,300,2013-03-20 09:53:00
2:00 AM,32.0,32.0,100,29.46,3.0,WNW,5.8,-,0.00,Snow,Light Snow,300,2013-03-20 10:00:00
2:20 AM,33.8,32.0,93,29.45,8.0,WNW,8.1,-,0.00,Snow,Light Snow,300,2013-03-20 10:20:00
2:53 AM,32.0,30.9,96,29.45,10.0,NW,9.2,-,0.00,,Overcast,310,2013-03-20 10:53:00
3:53 AM,32.0,30.9,96,29.43,10.0,NW,8.1,-,N/A,,Mostly Cloudy,320,2013-03-20 11:53:00
4:06 AM,32.0,30.2,93,29.42,10.0,NW,8.1,-,N/A,,Overcast,310,2013-03-20 12:06:00
4:53 AM,32.0,32.0,100,29.42,10.0,NW,5.8,-,N/A,,Mostly Cloudy,310,2013-03-20 12:53:00
5:26 AM,32.0,30.2,93,29.40,10.0,NW,8.1,-,N/A,,Mostly Cloudy,310,2013-03-20 13:26:00
5:53 AM,32.0,30.9,96,29.41,10.0,WNW,8.1,-,N/A,,Scattered Clouds,300,2013-03-20 13:53:00
6:11 AM,33.8,30.2,87,29.40,10.0,NW,11.5,-,N/A,,Mostly Cloudy,320,2013-03-20 14:11:00
6:53 AM,33.1,28.9,85,29.41,10.0,NNW,15.0,-,N/A,,Scattered Clouds,330,2013-03-20 14:53:00
7:53 AM,33.1,28.9,85,29.41,10.0,NNW,18.4,23.0,N/A,,Scattered Clouds,330,2013-03-20 15:53:00
8:53 AM,33.1,28.0,82,29.41,10.0,NNW,15.0,-,N/A,,Scattered Clouds,340,2013-03-20 16:53:00
9:53 AM,35.1,28.9,78,29.42,10.0,NNW,15.0,-,N/A,,Scattered Clouds,330,2013-03-20 17:53:00
10:53 AM,36.0,28.9,76,29.44,10.0,NNW,16.1,-,N/A,,Scattered Clouds,340,2013-03-20 18:53:00
11:53 AM,35.1,27.0,72,29.46,10.0,WNW,12.7,23.0,N/A,,Scattered Clouds,300,2013-03-20 19:53:00
12:53 PM,36.0,27.0,70,29.49,10.0,NW,11.5,18.4,N/A,,Mostly Cloudy,310,2013-03-20 20:53:00
1:53 PM,39.0,26.1,60,29.51,10.0,NW,13.8,21.9,N/A,,Mostly Cloudy,320,2013-03-20 21:53:00
2:53 PM,37.9,25.0,60,29.54,10.0,NW,16.1,21.9,N/A,,Scattered Clouds,310,2013-03-20 22:53:00
3:53 PM,37.9,23.0,55,29.57,10.0,NW,10.4,23.0,N/A,,Clear,310,2013-03-20 23:53:00
4:53 PM,39.0,23.0,53,29.61,10.0,NW,12.7,-,N/A,,Partly Cloudy,320,2013-03-21 00:53:00
5:53 PM,36.0,23.0,59,29.62,10.0,WNW,8.1,-,N/A,,Clear,300,2013-03-21 01:53:00
6:53 PM,34.0,25.0,70,29.65,10.0,WNW,5.8,-,N/A,,Scattered Clouds,300,2013-03-21 02:53:00
7:53 PM,33.1,24.1,70,29.69,10.0,Calm,Calm,-,N/A,,Partly Cloudy,0,2013-03-21 03:53:00
8:53 PM,30.0,27.0,88,29.72,10.0,Calm,Calm,-,N/A,,Clear,0,2013-03-21 04:53:00
9:53 PM,28.9,26.1,89,29.74,10.0,Calm,Calm,-,N/A,,Scattered Clouds,0,2013-03-21 05:53:00
10:53 PM,30.9,28.0,89,29.77,10.0,Calm,Calm,-,N/A,,Scattered Clouds,0,2013-03-21 06:53:00
11:53 PM,30.0,27.0,88,29.78,10.0,SSE,3.5,-,N/A,,Clear,150,2013-03-21 07:53:00